Погода в Больших Кабанах

Россия / Республика Татарстан     55°38′51″N   49°18′28″E
темп.,
°C
ветер,
м/с
пор.,
м/с
влажн.,
%
обл.,
%
осадки,
мм/ч
давл.,
гПа
погр.,
м
21 января, пт
пт2100:00−9ю61390100 0.0 1017384
03:00−11ю5129276 0.0 1017301
06:00−15ююв499995 0.0 1018128
09:00−15ююв411100100 0.0 1018184
12:00−12ю51296100 0.0 1018318
15:00−12ююв51196100 0.0 1019261
18:00−12ююв61396100 0.0 1018281
21:00−13ююв6149599 0.0 1018311
22 января, сб
сб2200:00−12юв61695100 0.0 1018365
03:00−11юв71693100 0.0 1017456
06:00−9ююв71594100 0.4 1017543
09:00−8ююв61294100 0.6 1019515
12:00−7ююв51095100 0.6 1019500
15:00−6юв51095100 1.4 1020535
18:00−6юв51095100 0.4 1021442
21:00−6юв51096100 0.8 1022362
23 января, вс
вс2300:00−6юв51196100 1.3 1023458
03:00−5ююв51196100 3.1 1024517
06:00−5ююв51095100 1.2 1025479
09:00−6ююв51095100 1.8 1028398
12:00−6ююв5995100 0.6 1029397
15:00−6ююв4896100 1.1 1031357
18:00−6ююв4896100 0.6 1033282
21:00−7ююв3696100 1.0 1034246
24 января, пн
пн2400:00−8ююв3595100 0.4 1036154
03:00−8ююв2495100 0.6 1037144
06:00−8юв2495100 0.5 1037157
09:00−9юв1291100 0.5 103890
12:00−8юв228584 0.0 1038141
15:00−11ююв119347 0.0 103810
18:00−18вюв119821 0.0 10389
21:00−20ю1110028 0.0 10389
25 января, вт
вт2500:00−21вюв1110068 0.0 10389
03:00−22ююв2210084 0.0 103711
06:00−23ю2210081 0.0 103611
09:00−21ю2210078 0.0 103538
12:00−14ю34925 0.0 1033116
15:00−15ююв349327 0.0 103257
18:00−21ююв329997 0.0 103131
21:00−19ю2397100 0.0 103040